Location: Cours
(47.0251°N, 3.0317°E)
Time: 01:13:10
(UTC+00:00)

Daily predictions for brighter satellites

Satellite Brightness Start Highest point End
(mag) Time Altitude Azimuth Time Altitude Azimuth Time Altitude Azimuth
Cosmos 1464 Rocket 4.0 00:08:47 59° SE 00:09:43 67° E 00:15:54 10° NNE
Cosmos 2333 4.1 00:04:13 10° NNW 00:10:01 75° WSW 00:10:14 74° SW
Cosmos 2219 Rocket 2.1 00:04:50 10° NNW 00:10:34 80° ENE 00:11:13 69° SE
Cosmos 836 Rocket 4.4 00:06:31 10° NNW 00:11:32 76° W 00:11:32 76° W
Lacrosse 4 Rocket 2.1 00:13:01 53° NNE 00:13:01 53° NNE 00:16:18 10° NNE
Cosmos 1782 Rocket 4.0 00:12:54 58° NE 00:12:54 58° NE 00:16:31 10° NNE
Cosmos 1354 Rocket 4.2 00:16:38 59° ESE 00:16:38 59° ESE 00:21:49 10° NNE
Cosmos 2322 Rocket 3.9 00:14:14 10° NW 00:17:43 19° W 00:17:43 19° W
Cosmos 968 Rocket 3.3 00:19:13 80° WNW 00:19:14 80° WNW 00:24:23 10° NNE
SL-4 R/B 4.3 00:22:19 14° ENE 00:22:19 14° ENE 00:22:53 10° ENE
Cosmos 1908 Rocket 4.2 00:21:10 49° NW 00:21:10 49° NW 00:24:57 10° N
COSMOS 2428 2.5 00:22:55 10° NNW 00:28:41 84° WSW 00:29:11 75° S
SL-16 R/B 3.6 00:28:37 22° ESE 00:32:09 40° ENE 00:37:55 10° N
CENTAUR R/B 4.1 00:27:39 10° W 00:33:25 35° NNW 00:40:09 10° NE
Nadezhda 4 Rocket 4.0 00:27:35 10° N 00:33:56 78° E 00:35:18 56° SSE
Cosmos 2360 Rocket 3.5 00:29:25 10° NW 00:33:24 26° W 00:33:24 26° W
Cosmos 2034 Rocket 3.9 00:35:41 60° SSE 00:36:50 77° E 00:43:09 10° NNE
CZ-2D R/B 3.5 00:32:17 10° NE 00:36:55 27° E 00:38:05 25° ESE
Cosmos 1513 Rocket 4.5 00:37:32 59° SW 00:38:44 75° W 00:45:12 10° N
USA 267 4.5 00:33:13 10° ENE 00:39:14 41° NNE 00:45:16 10° NW
Cosmos 1072 Rocket 4.4 00:39:08 59° SW 00:40:08 69° W 00:46:15 10° N
Okean 2 Rocket 3.5 00:41:46 57° ENE 00:41:46 57° ENE 00:45:54 10° NNE
Meteor 2-9 Rocket 4.1 00:41:29 66° WSW 00:42:02 72° WNW 00:47:43 10° N
GEOS 3 Rocket 3.7 00:37:09 10° NE 00:42:32 62° SE 00:42:46 62° SE
Cosmos 1975 3.9 00:45:31 39° NW 00:45:31 39° NW 00:48:37 10° N
ADEOS II 4.4 00:42:43 10° ENE 00:45:05 13° E 00:47:27 10° ESE
Cosmos 1092 Rocket 4.3 00:39:49 10° N 00:46:01 61° ENE 00:48:01 42° SE
Cosmos 2297 Rocket 3.2 00:45:36 31° ESE 00:46:17 32° ESE 00:51:14 10° NE
Cosmos 1975 Rocket 3.7 00:41:55 10° NNW 00:45:36 47° WNW 00:45:36 47° WNW
Cosmos 2219 4.0 00:45:50 36° ESE 00:46:25 37° ESE 00:51:32 10° NE
Cosmos 1980 4.0 00:42:05 10° NNW 00:47:43 62° ENE 00:49:51 37° SE
Sich 1 Rocket 3.7 00:48:43 69° NNW 00:48:43 69° NNW 00:52:43 10° N
Cosmos 2333 Rocket 2.5 00:42:47 10° NW 00:48:11 50° WSW 00:48:11 50° WSW
PSLV R/B 4.1 00:43:53 10° N 00:48:24 54° WNW 00:48:25 54° WNW
Helios 1B rocket 2.8 00:45:19 10° N 00:48:49 60° NNW 00:48:49 60° NNW
Meteor 1-29 4.3 00:49:52 10° NNE 00:52:12 40° NNE 00:52:12 40° NNE
Cosmos 44 Rocket 3.2 00:50:08 10° NW 00:55:08 83° SW 00:55:08 83° SW
Cosmos 783 Rocket 4.4 00:50:10 10° NNW 00:55:23 70° WSW 00:55:27 70° WSW
Cosmos 1503 Rocket 4.3 00:56:39 54° W 00:57:22 59° WNW 01:02:43 10° NNE
Cosmos 1300 Rocket 3.6 00:57:53 73° NE 00:57:53 73° NE 01:01:54 10° NNE
Cosmos 2237 Rocket 2.4 00:52:08 10° NNW 00:57:48 68° ENE 00:59:51 39° SE
DELTA 2 DEB (DPAF) 4.4 01:00:27 58° E 01:00:52 61° ENE 01:05:15 10° N
Okean 1 Rocket 4.3 01:01:02 30° ESE 01:01:29 31° E 01:05:18 10° NNE
CZ-4C R/B 4.3 01:04:19 36° ENE 01:04:19 36° ENE 01:07:26 10° N
Spot 1 4.0 01:06:48 77° NE 01:06:48 77° NE 01:10:46 10° NNW
Cosmos 2151 Rocket 3.5 01:12:30 86° E 01:12:30 86° E 01:16:54 10° N
Meteor 1-12 Rocket 4.3 01:11:28 57° SSW 01:12:44 83° W 01:18:48 10° N
Timation 2 Rocket 3.8 01:14:34 54° SSW 01:16:05 89° ESE 01:22:11 10° NNE
Cosmos 1707 3.8 01:14:16 10° NNW 01:17:05 38° NW 01:17:05 38° NW
In-Cosmos 22 4.1 01:12:32 10° NNW 01:18:11 80° W 01:19:15 59° S
Meteor 1-15 Rocket 4.4 01:22:53 45° SSE 01:24:30 65° E 01:30:04 10° NNE
Cosmos 1805 4.0 01:24:26 42° E 01:24:35 42° E 01:28:16 10° NNE
SJ 16-02 2.9 01:25:10 24° ESE 01:26:06 25° E 01:29:45 10° NE
DNEPR-1 R/B 4.4 01:20:54 10° NW 01:26:52 64° NE 01:31:05 14° SE
ERBS 3.6 01:23:45 10° NW 01:26:53 39° NNE 01:30:00 10° E
Meteor 2-13 Rocket 4.4 01:26:19 10° NNW 01:32:24 71° W 01:34:11 47° SSW
Cosmos 1538 Rocket 3.8 01:29:39 10° NNW 01:34:49 74° WSW 01:35:51 56° S
Cosmos 2195 Rocket 4.5 01:28:46 10° NNW 01:35:02 70° W 01:37:03 44° SSW
Cosmos 2227 Rocket 2.3 01:33:34 46° S 01:35:06 65° ESE 01:40:44 10° NNE
Cosmos 1025 Rocket 3.8 01:32:38 10° NNW 01:36:08 38° WNW 01:36:08 38° WNW
MOZ.5/SAFIR/RUBIN 5/SL-8 3.9 01:36:59 54° WSW 01:37:12 54° W 01:41:53 10° NNW
Resurs 1-4 Rocket 2.0 01:32:41 10° NNE 01:38:00 85° ESE 01:39:24 51° S
Cosmos 1674 2.6 01:36:18 10° N 01:39:47 77° NNW 01:39:47 77° NNW
Cosmos 1733 3.8 01:42:53 45° ESE 01:43:21 48° E 01:47:04 10° NNE
NOSS 0 Rocket 4.3 01:38:07 10° NW 01:43:55 41° WSW 01:44:40 40° SW
ATLAS 3B R/B 4.1 01:40:58 10° W 01:46:38 29° NNW 01:52:26 10° NNE
Cosmos 2279 Rocket 4.0 01:44:46 35° S 01:47:30 75° E 01:53:42 10° NNE
Cosmos 1536 Rocket 4.3 01:44:41 10° NNW 01:48:26 37° W 01:48:26 37° W
USA 215 3.5 01:42:30 10° ENE 01:48:57 56° SE 01:51:29 36° SSW
Cosmos 2026 Rocket 4.0 01:43:07 10° NNW 01:49:06 63° W 01:51:09 41° SSW
COBE Rocket 4.0 01:47:33 31° SSE 01:49:41 66° ENE 01:54:18 10° N
Lacrosse 4 Rocket 3.8 01:49:19 12° WNW 01:51:19 16° NW 01:53:54 10° N
Cosmos 1634 Rocket 4.0 01:50:26 41° SW 01:52:40 66° W 01:58:53 10° N
Cosmos 2219 Rocket 3.9 01:50:14 10° WNW 01:52:54 17° W 01:52:54 17° W
Cosmos 2344 4.4 01:45:45 10° NW 01:55:21 70° WSW 02:08:46 10° SSE
Cosmos 2082 4.1 01:53:29 34° S 01:55:41 55° ESE 02:01:10 10° NE
SL-4 R/B 1.8 01:58:01 30° NW 01:59:33 68° NNE 02:02:56 10° ESE
Meteor 1-24 Rocket 3.6 01:59:59 10° N 02:05:31 81° ENE 02:08:55 23° SSE
SL-16 R/B 2.2 02:00:43 10° NNW 02:06:27 86° ENE 02:12:08 10° SSE
CBERS-1 4.1 02:01:42 10° NNE 02:06:50 71° ESE 02:09:09 33° S
Meteor 2-5 Rocket 3.6 02:03:34 10° NNW 02:09:14 74° W 02:11:58 31° S
ARIANE 5 R/B 3.6 02:09:18 10° NNE 02:14:15 41° E 02:18:03 16° SSE
Cosmos 1898 Rocket 4.2 02:11:41 25° SSE 02:14:29 48° ESE 02:19:30 10° NNE
SL-16 R/B 3.0 02:13:42 32° SW 02:15:43 41° W 02:21:37 10° NNW
NPP 3.9 02:10:55 10° N 02:16:12 57° WNW 02:18:22 34° SW
IDEFIX/ARIANE 42P 4.2 02:12:31 10° NE 02:17:02 29° E 02:21:31 10° SSE
CZ-2D R/B 2.6 02:11:55 10° N 02:17:11 49° WNW 02:19:24 31° WSW
Cosmos 1680 Rocket 3.4 02:12:53 10° NNW 02:18:10 90° NE 02:22:58 12° SSE
NOSS 3-1 (C) 4.0 02:17:24 24° S 02:20:15 43° ESE 02:26:04 10° NE
USA 267 3.5 02:15:15 10° ESE 02:21:45 74° NNE 02:28:18 10° NW
AQUA 4.1 02:18:02 10° N 02:22:42 55° WNW 02:24:26 35° SW
Cosmos 1544 Rocket 4.5 02:20:01 19° SSE 02:22:52 46° E 02:27:09 10° NNE
Cosmos 1607 3.9 02:18:40 10° NW 02:25:07 74° WSW 02:31:34 10° SSE
ADEOS II 2.0 02:20:14 10° NNE 02:25:32 89° ESE 02:28:23 28° SSW
Cosmos 990 Rocket 4.2 02:23:20 27° S 02:26:08 66° ESE 02:31:16 10° NNE
Cosmos 1766 3.8 02:26:32 38° WSW 02:27:15 42° WNW 02:30:59 10° N
Cosmos 2263 Rocket 3.9 02:24:08 10° SSE 02:28:40 26° ESE 02:33:13 10° NE
IRS-1D 3.5 02:24:20 10° N 02:29:22 73° WNW 02:31:54 30° SSW
Meteor 1-22 Rocket 4.0 02:27:11 30° SSW 02:29:50 76° WNW 02:35:10 10° N
Cosmos 2297 Rocket 2.8 02:27:24 26° WSW 02:30:09 45° NW 02:35:35 10° NNE
Cosmos 2219 4.0 02:27:45 24° WSW 02:30:32 39° NW 02:35:48 10° NNE
Okean 1-7 Rocket 3.5 02:27:42 10° N 02:32:08 88° W 02:35:04 21° S
IRS-1C 4.2 02:29:46 10° NNE 02:35:08 79° ESE 02:38:42 22° S
TIMED 4.4 02:32:15 10° NNW 02:36:36 65° WSW 02:39:36 19° S
Cosmos 1626 2.5 02:34:38 10° NNW 02:38:11 43° W 02:38:57 38° SW
Meteor 1-28 Rocket 3.2 02:36:22 19° SSE 02:39:02 84° ENE 02:42:52 10° NNW
Cosmos 2266 Rocket 4.0 02:32:41 10° N 02:39:06 80° W 02:45:02 12° S
Okean 1 Rocket 4.3 02:38:14 24° W 02:39:23 27° WNW 02:43:06 10° NNW
Cosmos 1655 Rocket 4.1 02:33:45 10° NNW 02:39:55 61° W 02:44:28 19° SSW
Cosmos 2237 Rocket 3.5 02:37:15 10° NW 02:41:16 20° W 02:41:37 20° WSW
CZ-4B R/B 3.8 02:38:00 10° N 02:42:36 47° WNW 02:44:51 27° SW
Cosmos 1470 2.7 02:41:43 28° S 02:43:44 90° S 02:47:45 10° N
Cosmos 923 Rocket 4.5 02:43:09 10° NW 02:48:06 40° WSW 02:51:06 21° SSW
SL-08 R/B 3.3 02:43:56 13° S 02:48:22 72° WSW 02:53:21 10° NNW
USA 229 DEB 3.9 02:48:34 19° SSW 02:53:17 65° ESE 03:00:04 10° NE
USA 229 3.9 02:48:40 19° SSW 02:53:22 64° ESE 03:00:08 10° NE
Cosmos 2098 Rocket 3.6 02:49:25 10° NNW 02:54:06 60° W 02:59:34 12° S
Cosmos 158 Rocket 4.4 02:50:51 10° NNW 02:55:56 45° WSW 03:00:32 12° S
OPS 8737 4.3 02:57:00 28° SW 02:58:44 88° SE 03:01:46 10° NE
SL-14 R/B 4.3 02:59:17 10° NNW 03:02:37 27° W 03:03:47 23° WSW
ERBS 3.2 03:00:12 10° WNW 03:03:33 27° SSW 03:05:56 10° SSE
Meteor 2-14 Rocket 4.5 02:57:49 10° N 03:03:55 84° E 03:10:00 10° S
NOSS 2-3 (C) 4.4 03:01:07 16° S 03:04:16 45° ESE 03:08:57 10° NE
NOSS 3-1 (A) 3.8 03:00:07 15° SSW 03:04:29 54° ESE 03:10:35 10° NE
SJ 16-02 2.2 03:02:10 21° WSW 03:04:31 36° WNW 03:08:37 10° N
CSL-04 DEB 4.3 03:05:58 10° SSE 03:09:52 85° ENE 03:13:50 10° NNW
Cosmos 1809 Rocket 4.4 03:07:06 10° NNW 03:13:10 69° W 03:19:13 10° S
Cosmos 1943 3.5 03:07:36 10° NNW 03:13:14 70° ENE 03:18:49 10° SE
MSX 4.3 03:07:31 10° NNE 03:13:14 63° ESE 03:18:57 10° S
Cosmos 1455 Rocket 3.8 03:11:32 19° SW 03:14:09 38° WNW 03:18:20 10° N
Cosmos 1626 Rocket 3.5 03:10:08 10° NNW 03:14:28 69° W 03:18:44 10° S
Cosmos 1758 3.7 03:13:24 19° SW 03:16:05 48° WNW 03:20:00 10° N
Resurs 1-4 Rocket 4.0 03:13:54 10° NNW 03:17:08 17° WNW 03:20:21 10° W
Spot 4 Rocket 4.0 03:12:41 10° NNE 03:17:53 82° WNW 03:23:00 10° SSW
Meteor 1-21 Rocket 4.1 03:12:39 10° NNW 03:18:14 83° W 03:23:45 10° S
Cosmos 2227 Rocket 3.6 03:15:24 12° W 03:19:38 26° NW 03:24:20 10° N
SeaSat 1 3.1 03:17:18 10° NE 03:22:08 51° ESE 03:26:56 10° S
Landsat 5 3.3 03:20:43 10° SSE 03:24:36 90° SSW 03:28:39 10° NNW
CZ-2C R/B 2.8 03:22:06 10° NNE 03:26:00 86° E 03:29:49 10° SSW
Cosmos 1461 3.6 03:23:26 16° WSW 03:26:47 49° NW 03:31:15 10° NNE
CZ-2D R/B 3.5 03:23:35 10° N 03:27:36 57° WNW 03:31:11 12° SSW
FALCON 9 DEB 3.1 03:26:46 10° WNW 03:30:12 58° SW 03:33:37 10° SE
Cosmos 2227 4.3 03:24:45 10° SSW 03:30:27 86° ESE 03:36:16 10° NNE
USA 215 3.7 03:25:36 10° NE 03:32:01 60° NNW 03:38:24 10° WSW
ATLAS 3B CENTAUR R/B 4.4 03:27:04 12° SW 03:32:02 18° SSW 03:36:15 10° SSE
ATLAS CENTAUR R/B 3.8 03:29:31 10° SSE 03:32:17 17° ESE 03:34:57 10° ENE
Cosmos 1758 Rocket 3.8 03:28:06 10° N 03:32:25 70° ENE 03:36:43 10° SSE
Cosmos 1340 Rocket 3.8 03:29:56 15° SW 03:32:45 31° WNW 03:36:20 10° N
ERS-2 2.0 03:32:15 10° S 03:35:52 74° WSW 03:39:32 10° NNW
Cosmos 724 4.4 03:30:07 10° NW 03:36:03 62° WSW 03:42:04 10° SSE
Cosmos 2228 4.1 03:32:50 10° SSE 03:37:00 47° E 03:41:14 10° NNE
SL-4 R/B 2.6 03:36:01 10° W 03:38:52 25° SW 03:41:42 10° SSE
Cosmos 1953 2.6 03:35:06 10° SSW 03:39:01 52° WNW 03:42:59 10° N
Cosmos 1726 2.7 03:38:38 11° SW 03:41:57 40° WNW 03:45:27 10° N
Cosmos 1908 3.3 03:40:14 10° S 03:44:07 84° E 03:48:04 10° N
Meteor 1-16 Rocket 4.1 03:39:54 10° SSW 03:45:15 81° W 03:50:48 10° N
Cosmos 2285 Rocket 4.3 03:40:45 10° S 03:47:01 73° ESE 03:53:19 10° NNE
SL-16 R/B 3.7 03:46:30 10° WNW 03:49:46 16° W 03:53:01 10° SW
H-2A R/B 2.3 03:46:23 10° S 03:50:20 43° W 03:54:15 10° NNW
Cosmos 2150 Rocket 4.2 03:46:40 10° SSW 03:51:49 77° ESE 03:57:03 10° NNE
Cosmos 1937 Rocket 4.3 03:47:12 10° SW 03:52:08 38° WNW 03:57:07 10° N
ARIANE 5 R/B 3.6 03:48:40 10° N 03:53:13 31° WNW 03:57:46 10° SW
Cosmos 1825 Rocket 3.5 03:50:39 10° N 03:55:02 86° WSW 03:59:21 10° S
IDEFIX/ARIANE 42P 3.1 03:51:52 10° N 03:56:45 42° WNW 04:01:36 10° SW
Cosmos 1328 3.8 03:55:27 10° NNW 03:59:26 65° W 04:03:22 10° S
CZ-4C R/B 3.8 03:56:57 10° SSW 03:59:44 27° W 04:02:36 10° NW
ADEOS 4.4 03:54:44 10° NNE 03:59:51 53° E 04:04:57 10° S
Cosmos 1953 Rocket 3.9 03:56:33 10° N 04:01:05 75° E 04:05:33 10° SSE
NOSS 2-3 (E) 3.9 03:58:23 10° SW 04:02:40 62° NW 04:07:47 10° NE
CZ-4B R/B 1.5 03:59:25 10° SSE 04:02:43 77° ENE 04:05:58 10° N
ADEOS II 3.9 04:01:27 10° NNW 04:04:30 16° NW 04:07:33 10° W
USA 267 3.7 03:59:00 10° SSE 04:05:04 40° SW 04:11:10 10° WNW
